This is the latest recevied weather packets stored in our database for station/object DJ5CM-10. If no packets are shown the sender has not sent any weather packets the latest 10 day(s).
| Time | Temp. | Humidity | Pressure | Rain* | Wind** | Luminosity | Snow |
|---|---|---|---|---|---|---|---|
| 1778027896 | 7.78° C | 67% | 1009.8 hPa | - | - | - | - |
| 1778026996 | 8.33° C | 66% | 1009.7 hPa | - | - | - | - |
| 1778026095 | 8.33° C | 67% | 1009.7 hPa | - | - | - | - |
| 1778025195 | 8.33° C | 66% | 1009.7 hPa | - | - | - | - |
| 1778024295 | 8.33° C | 65% | 1009.9 hPa | - | - | - | - |
| 1778023395 | 8.33° C | 65% | 1009.8 hPa | - | - | - | - |
| 1778022495 | 8.33° C | 64% | 1009.8 hPa | - | - | - | - |
| 1778021595 | 8.89° C | 63% | 1009.7 hPa | - | - | - | - |
| 1778020695 | 8.89° C | 63% | 1009.9 hPa | - | - | - | - |
| 1778019795 | 8.89° C | 62% | 1009.8 hPa | - | - | - | - |
| 1778018895 | 9.44° C | 61% | 1009.9 hPa | - | - | - | - |
| 1778017995 | 9.44° C | 61% | 1010 hPa | - | - | - | - |
| 1778017094 | 9.44° C | 60% | 1010.1 hPa | - | - | - | - |
| 1778016194 | 10° C | 59% | 1010.2 hPa | - | - | - | - |
| 1778015294 | 10° C | 58% | 1010.2 hPa | - | - | - | - |
| 1778014394 | 10.56° C | 57% | 1010.2 hPa | - | - | - | - |
| 1778013494 | 10.56° C | 57% | 1010.2 hPa | - | - | - | - |
| 1778012594 | 11.11° C | 56% | 1010.2 hPa | - | - | - | - |
| 1778011694 | 11.67° C | 56% | 1010.2 hPa | - | - | - | - |
| 1778010794 | 11.67° C | 55% | 1010.3 hPa | - | - | - | - |
| 1778009894 | 12.22° C | 55% | 1010.2 hPa | - | - | - | - |
| 1778008993 | 12.78° C | 54% | 1010.1 hPa | - | - | - | - |
| 1778008093 | 13.33° C | 54% | 1009.8 hPa | - | - | - | - |
| 1778007193 | 13.33° C | 54% | 1009.6 hPa | - | - | - | - |
| 1778006293 | 13.89° C | 54% | 1009.6 hPa | - | - | - | - |
* Rain since midnight (hover to see other rain measurements)
** Current wind speed in m/s (hover to see current wind gust speed)